Weather History for Salt Lake City, UT

Change the Weather History Date:

Saturday, March 2, 2013

  Actual Average Record
Temperature  
Mean Temperature 40 °F 40 °F  
Max Temperature 50 °F 49 °F 66 °F (1921)
Min Temperature 29 °F 30 °F 3 °F (1971)
Degree Days  
Heating Degree Days 25 25  
Month to date heating degree days 51 51  
Since 1 July heating degree days 4283 4307  
Cooling Degree Days 0 0  
Month to date cooling degree days 0 0  
Year to date cooling degree days 0 0  
Moisture  
Dew Point 31 °F    
Average Humidity 69    
Maximum Humidity 92    
Minimum Humidity 46    
Precipitation  
Precipitation 0.00 in 0.05 in 1.11 in (1941)
Month to date precipitation 0.00 0.10  
Year to date precipitation 2.20 2.60  
Snow  
Snow 0.00 in 0.20 in 10.10 in (1977)
Month to date snowfall 0.0 0.5  
Since 1 July snowfall 67.1 45.9  
Snow Depth 0.00 in    
Sea Level Pressure  
Sea Level Pressure 30.35 in    
Wind  
Wind Speed 5 mph (SW)    
Max Wind Speed 12 mph    
Max Gust Speed 13 mph    
Visibility 8 miles    
Events      
T = Trace of Precipitation, MM = Missing Value Source: NWS Daily Summary

Daily Weather History Graph

Daily Weather History Graph

Search for Another Location

Airport:

Trip Planner

Search our weather history database for the weather conditions in past years. The results will help you decide how hot, cold, wet, or windy it might be!

Date:

Astronomy

Mar. 02, 2013 Rise Set
Actual Time 6:59 AM MST 6:20 PM MST
Civil Twilight 6:32 AM MST 6:48 PM MST
Nautical Twilight 6:00 AM MST 7:19 PM MST
Astronomical Twilight 5:28 AM MST 7:51 PM MST
Moon No Moon Rise 9:28 AM MST (3/2)
Length of Visible Light 12h 15m
Length of Day
11h 20m
Waning Gibbous, 73% of the Moon is Illuminated
Mar 2
Waning Gibbous
Mar 4
Last Quarter
Mar 11
New
Mar 19
First Quarter
Mar 27
Full

Hourly Weather History & Observations

Time (MST) Temp. Windchill Dew Point Humidity Pressure Visibility Wind Dir Wind Speed Gust Speed Precip Events Conditions
12:53 AM 30.9 °F - 28.9 °F 92% 30.51 in 9.0 mi Calm Calm - N/A   Scattered Clouds
1:53 AM 30.0 °F - 28.0 °F 92% 30.54 in 8.0 mi Calm Calm - N/A   Scattered Clouds
2:53 AM 30.0 °F 24.1 °F 28.0 °F 92% 30.52 in 9.0 mi SW 5.8 mph - N/A   Mostly Cloudy
3:53 AM 28.9 °F - 27.0 °F 92% 30.50 in 9.0 mi Calm Calm - N/A   Mostly Cloudy
4:53 AM 30.0 °F 25.2 °F 27.0 °F 88% 30.51 in 10.0 mi ESE 4.6 mph - N/A   Mostly Cloudy
5:53 AM 30.0 °F 22.4 °F 27.0 °F 88% 30.48 in 10.0 mi ESE 8.1 mph - N/A   Mostly Cloudy
6:53 AM 30.9 °F 26.2 °F 28.0 °F 89% 30.47 in 10.0 mi SSE 4.6 mph - N/A   Scattered Clouds
7:53 AM 33.1 °F 27.7 °F 28.0 °F 82% 30.47 in 10.0 mi SSE 5.8 mph - N/A   Mostly Cloudy
8:53 AM 37.0 °F 32.4 °F 30.0 °F 76% 30.48 in 10.0 mi SSE 5.8 mph - N/A   Mostly Cloudy
9:53 AM 41.0 °F 35.8 °F 30.0 °F 65% 30.45 in 10.0 mi SSE 8.1 mph - N/A   Scattered Clouds
10:53 AM 44.1 °F 41.5 °F 30.0 °F 58% 30.42 in 10.0 mi SE 4.6 mph - N/A   Mostly Cloudy
11:53 AM 48.0 °F - 30.0 °F 50% 30.37 in 10.0 mi Calm Calm - N/A   Mostly Cloudy
12:53 PM 45.0 °F 39.3 °F 33.1 °F 63% 30.35 in 10.0 mi NNW 11.5 mph - N/A   Mostly Cloudy
1:53 PM 46.9 °F - 33.1 °F 59% 30.32 in 10.0 mi WNW 10.4 mph - N/A   Mostly Cloudy
2:53 PM 46.9 °F - 34.0 °F 61% 30.30 in 10.0 mi NW 8.1 mph - N/A   Mostly Cloudy
3:53 PM 48.9 °F - 33.1 °F 54% 30.26 in 7.0 mi NW 5.8 mph - N/A   Mostly Cloudy
4:53 PM 46.9 °F - 33.1 °F 59% 30.22 in 7.0 mi WNW 4.6 mph - N/A   Mostly Cloudy
5:53 PM 42.1 °F 37.1 °F 35.1 °F 76% 30.23 in 6.0 mi NW 8.1 mph - N/A   Haze
6:53 PM 39.0 °F - 33.1 °F 79% 30.24 in 7.0 mi Calm Calm - N/A   Mostly Cloudy
7:53 PM 39.0 °F 34.0 °F 33.1 °F 79% 30.16 in 7.0 mi South 6.9 mph - N/A   Mostly Cloudy
8:53 PM 39.9 °F 36.7 °F 34.0 °F 79% 30.17 in 5.0 mi NE 4.6 mph - N/A   Haze
9:53 PM 37.0 °F 32.4 °F 32.0 °F 82% 30.16 in 5.0 mi NW 5.8 mph - N/A   Haze
10:53 PM 36.0 °F 32.1 °F 32.0 °F 86% 30.13 in 4.0 mi North 4.6 mph - N/A   Mostly Cloudy
11:53 PM 35.1 °F 31.0 °F 32.0 °F 89% 30.09 in 6.0 mi WSW 4.6 mph - N/A   Mostly Cloudy